Location: Newark
(12.0500°N, 61.7500°W)
Time: 01:58:34
(UTC+00:00)

Envisat - Pass Details

Date: 24 January 2020
Orbit: 764 x 766 km, 98.1° (Epoch: 21 February)

Event Time Altitude Azimuth Distance (km) Brightness Sun altitude
Rises 22:55:52 0° 189° (S) 3,222 6.6 -12.5°
Reaches altitude 10° 22:58:26 10° 200° (SSW) 2,296 6.0 -13.1°
Maximum altitude 23:02:47 29° 260° (W) 1,363 5.2 -14.1°
Drops below altitude 10° 23:07:10 10° 320° (NW) 2,297 5.8 -15.1°
Sets 23:09:44 0° 331° (NNW) 3,222 6.4 -15.7°
